Weather History for Nouasseur, Morocco

Change the Weather History Date:

Friday, February 8, 2013

  Actual Average Record
Temperature  
Mean Temperature 46 °F -  
Max Temperature 59 °F 65 °F 75 °F (2008)
Min Temperature 33 °F 44 °F 33 °F (2013)
Degree Days  
Heating Degree Days 19    
Moisture  
Dew Point 38 °F    
Average Humidity 74    
Maximum Humidity 93    
Minimum Humidity 50    
Precipitation  
Precipitation 0.00 in - - ()
Sea Level Pressure  
Sea Level Pressure 30.17 in    
Wind  
Wind Speed 6 mph ()    
Max Wind Speed 16 mph    
Max Gust Speed -    
Visibility 6.2 miles    
Events      
Averages and records for this station are not official NWS values.
T = Trace of Precipitation, MM = Missing Value Source: Averaged Metar Reports

Daily Weather History Graph

Daily Weather History Graph

Search for Another Location

Airport:

Trip Planner

Search our weather history database for the weather conditions in past years. The results will help you decide how hot, cold, wet, or windy it might be!

Date:

Astronomy

Feb. 08, 2013 Rise Set
Actual Time 7:20 AM WET 6:08 PM WET
Civil Twilight 6:55 AM WET 6:34 PM WET
Nautical Twilight 6:25 AM WET 7:03 PM WET
Astronomical Twilight 5:56 AM WET 7:32 PM WET
Moon 5:35 AM WET (2/8) 4:28 PM WET (2/8)
Length of Visible Light 11h 39m
Length of Day
10h 48m
Waning Crescent, 4% of the Moon is Illuminated
Feb 8
Waning Crescent
Feb 10
New
Feb 17
First Quarter
Feb 25
Full
Mar 4
Last Quarter

Hourly Weather History & Observations

Time (WET) Temp. Windchill Dew Point Humidity Pressure Visibility Wind Dir Wind Speed Gust Speed Precip Events Conditions
12:00 AM 40 °F - 35 °F 77% 30.25 in 6 mi East 6.9 mph - -   Clear
12:00 AM 39.2 °F 34.2 °F 35.6 °F 87% 30.21 in - East 6.9 mph - N/A   Clear
12:30 AM 39.2 °F 35.9 °F 35.6 °F 87% 30.21 in - East 4.6 mph - N/A   Clear
1:00 AM 39.2 °F 35.0 °F 35.6 °F 87% 30.18 in - East 5.8 mph - N/A   Clear
1:30 AM 39.2 °F 35.9 °F 35.6 °F 87% 30.18 in - ENE 4.6 mph - N/A   Clear
2:00 AM 39.2 °F 35.0 °F 35.6 °F 87% 30.15 in - ENE 5.8 mph - N/A   Clear
2:30 AM 39.2 °F 35.9 °F 35.6 °F 87% 30.15 in - East 4.6 mph - N/A   Clear
3:00 AM 38 °F - 34 °F 80% 30.19 in 6 mi East 4.6 mph - -   Clear
3:00 AM 37.4 °F 33.8 °F 33.8 °F 87% 30.15 in - East 4.6 mph - N/A   Clear
3:30 AM 37.4 °F 33.8 °F 33.8 °F 87% 30.15 in - East 4.6 mph - N/A   Clear
4:00 AM 37.4 °F 32.8 °F 33.8 °F 87% 30.15 in - East 5.8 mph - N/A   Clear
4:30 AM 37.4 °F 34.9 °F 33.8 °F 87% 30.15 in - ESE 3.5 mph - N/A   Clear
5:00 AM 35.6 °F - 32.0 °F 87% 30.15 in - SE 2.3 mph - N/A   Clear
5:30 AM 35.6 °F - 32.0 °F 87% 30.15 in - SE 1.2 mph - N/A   Clear
6:00 AM 36 °F - 32 °F 81% 30.19 in 6 mi ESE 4.6 mph - -   Clear
6:00 AM 35.6 °F 31.7 °F 32.0 °F 87% 30.15 in - ESE 4.6 mph - N/A   Clear
6:30 AM 33.8 °F 29.6 °F 30.2 °F 87% 30.15 in - SSE 4.6 mph - N/A   Clear
7:00 AM 33.8 °F - 32.0 °F 93% 30.15 in - ESE 2.3 mph - N/A   Clear
7:30 AM 35.6 °F 32.8 °F 32.0 °F 87% 30.15 in - ESE 3.5 mph - N/A   Clear
8:00 AM 35.6 °F 31.7 °F 32.0 °F 87% 30.15 in - SE 4.6 mph - N/A   Clear
8:30 AM 39.2 °F 37.0 °F 35.6 °F 87% 30.18 in - SE 3.5 mph - N/A   Clear
9:00 AM 42.8 °F - 39.2 °F 87% 30.18 in 6.2 mi SE 2.3 mph - N/A   Partly Cloudy
9:30 AM 48.2 °F - 42.8 °F 82% 30.18 in 6.2 mi East 2.3 mph - N/A   Partly Cloudy
10:00 AM 50.0 °F - 42.8 °F 76% 30.21 in 6.2 mi East 4.6 mph - N/A   Partly Cloudy
10:30 AM 51.8 °F - 42.8 °F 71% 30.21 in 6.2 mi ENE 8.1 mph - N/A   Partly Cloudy
11:00 AM 55.4 °F - 44.6 °F 67% 30.21 in - NE 9.2 mph - N/A   Clear
11:30 AM 55.4 °F - 44.6 °F 67% 30.21 in - NE 11.5 mph - N/A   Clear
12:00 PM 58 °F - 44 °F 50% 30.19 in 6 mi NNE 10.4 mph - -   Partly Cloudy
12:00 PM 59.0 °F - 44.6 °F 59% 30.18 in 6.2 mi NNE 10.4 mph - N/A   Scattered Clouds
12:30 PM 59.0 °F - 44.6 °F 59% 30.18 in 6.2 mi NNE 15.0 mph - N/A   Scattered Clouds
1:00 PM 59.0 °F - 42.8 °F 55% 30.15 in 6.2 mi NNE 13.8 mph - N/A   Scattered Clouds
1:30 PM 59.0 °F - 41.0 °F 51% 30.15 in 6.2 mi NNE 16.1 mph - N/A   Scattered Clouds
2:00 PM 59.0 °F - 42.8 °F 55% 30.15 in 6.2 mi NNE 13.8 mph - N/A   Partly Cloudy
2:30 PM 59.0 °F - 41.0 °F 51% 30.12 in 6.2 mi NE 12.7 mph - N/A   Partly Cloudy
3:30 PM 59.0 °F - 42.8 °F 55% 30.12 in 6.2 mi NNE 13.8 mph - N/A   Partly Cloudy
4:00 PM 59.0 °F - 42.8 °F 55% 30.12 in 6.2 mi NNE 12.7 mph - N/A   Partly Cloudy
4:30 PM 57.2 °F - 42.8 °F 59% 30.12 in 6.2 mi North 13.8 mph - N/A   Partly Cloudy
5:00 PM 57.2 °F - 42.8 °F 59% 30.12 in 6.2 mi NNE 13.8 mph - N/A   Partly Cloudy
5:30 PM 55.4 °F - 42.8 °F 63% 30.12 in 6.2 mi NNE 11.5 mph - N/A   Partly Cloudy
6:00 PM 54 °F - 41 °F 52% 30.15 in 6 mi NNE 10.4 mph - -   Scattered Clouds
6:00 PM 55.4 °F - 41.0 °F 58% 30.12 in 6.2 mi NNE 10.4 mph - N/A   Partly Cloudy
6:30 PM 53.6 °F - 41.0 °F 62% 30.15 in 6.2 mi NNE 8.1 mph - N/A   Partly Cloudy
7:00 PM 51.8 °F - 41.0 °F 67% 30.15 in 6.2 mi NNE 8.1 mph - N/A   Partly Cloudy
7:30 PM 51.8 °F - 41.0 °F 67% 30.15 in 6.2 mi NNE 5.8 mph - N/A   Partly Cloudy
8:00 PM 50.0 °F - 41.0 °F 71% 30.15 in 6.2 mi NNE 4.6 mph - N/A   Partly Cloudy
8:30 PM 50.0 °F - 41.0 °F 71% 30.18 in 6.2 mi NE 4.6 mph - N/A   Partly Cloudy
9:00 PM 48 °F - 40 °F 64% 30.21 in 6 mi NE 4.6 mph - -   Scattered Clouds
9:00 PM 48.2 °F - 39.2 °F 71% 30.18 in 6.2 mi NE 4.6 mph - N/A   Partly Cloudy
9:30 PM 46.4 °F 45.2 °F 39.2 °F 76% 30.18 in 6.2 mi East 3.5 mph - N/A   Partly Cloudy
10:00 PM 44.6 °F 41.4 °F 37.4 °F 76% 30.18 in 6.2 mi East 5.8 mph - N/A   Partly Cloudy
10:30 PM 42.8 °F 39.3 °F 37.4 °F 81% 30.18 in 6.2 mi ESE 5.8 mph - N/A   Partly Cloudy
11:00 PM 41.0 °F 38.0 °F 35.6 °F 81% 30.18 in 6.2 mi SE 4.6 mph - N/A   Partly Cloudy
11:30 PM 39.2 °F 37.0 °F 35.6 °F 87% 30.18 in 6.2 mi ESE 3.5 mph - N/A   Partly Cloudy